Location: Rossiglione
(44.5667°N, 8.6667°E)
Time: 15:15:34
(UTC+00:00)

Daily predictions for brighter satellites

Satellite Brightness Start Highest point End
(mag) Time Altitude Azimuth Time Altitude Azimuth Time Altitude Azimuth
H-2A ROCKET BODY 4.1 19:31:06 10° SSW 19:34:39 19° SSE 19:42:28 10° ESE
Cosmos 1745 Rocket 4.3 19:40:28 10° SSE 19:46:23 51° E 19:52:26 10° NNE
Resurs 1-3 3.8 19:45:37 10° S 19:50:00 76° WSW 19:54:24 10° NNW
Cosmos 1125 Rocket 3.6 19:46:13 10° NNW 19:51:30 86° WSW 19:56:46 10° SSE
Cosmos 1300 4.3 19:49:56 10° NNW 19:53:25 34° W 19:56:53 10° SSW
H-2A R/B 4.4 19:50:46 10° SW 19:55:05 24° W 19:59:27 10° NW
Meteor 1-21 Rocket 4.4 19:49:37 10° S 19:55:25 62° E 20:01:17 10° NNE
SPOT 1/Viking Rocket 4.5 19:51:49 10° SE 19:56:24 34° ENE 20:01:02 10° N
VEP-3 4.4 19:56:59 10° SSW 19:59:46 13° SSE 20:03:07 10° SE
Cosmos 2322 Rocket 2.5 19:55:14 10° SSW 20:00:50 74° WNW 20:06:29 10° NNE
SL-08 ROCKET BODY 4.4 19:55:59 10° S 20:01:51 67° E 20:07:50 10° NNE
SPOT 3 Rocket 4.1 19:57:12 10° S 20:02:20 61° WSW 20:07:32 10° NNW
NOSS 7 (D) 3.7 20:00:11 10° SSW 20:03:03 76° SE 20:05:45 10° NE
Cosmos 2237 4.2 19:57:53 10° SSW 20:03:34 68° ESE 20:09:16 10° NNE
Cosmos 1455 2.2 20:08:58 10° N 20:12:49 73° E 20:16:40 10° SSE
Cosmos 1461 4.3 20:08:44 10° NW 20:13:07 38° WSW 20:17:30 10° S
Cosmos 1825 Rocket 3.9 20:11:07 10° SSE 20:15:22 49° E 20:19:40 10° NNE
ATLAS CENTAUR R/B 3.1 20:16:16 10° N 20:19:03 20° NE 20:21:46 10° E
Cosmos 1703 3.3 20:16:09 10° S 20:19:57 58° E 20:23:47 10° NNE
COSMOS 2428 3.6 20:16:07 10° SSE 20:20:53 29° ESE 20:25:40 10° NE
Cosmos 1812 Rocket 4.0 20:18:46 10° NNW 20:23:03 62° W 20:27:19 10° S
SL-24 R/B - RUBIN 2 4.5 20:17:43 10° SSW 20:23:32 58° ESE 20:29:56 10° NE
Cosmos 2322 3.9 20:19:07 10° S 20:24:38 52° ESE 20:30:10 10° NE
Cosmos 1844 3.9 20:18:58 10° NNW 20:24:44 64° ENE 20:29:32 15° SE
Delta 2 Rocket 4.4 20:24:46 10° SW 20:27:09 18° S 20:28:10 16° SSE
Cosmos 783 Rocket 4.4 20:25:34 10° SSW 20:30:48 79° ESE 20:36:03 10° NNE
Cosmos 1709 Rocket 4.1 20:25:14 10° S 20:31:25 63° E 20:37:42 10° NNE
Cosmos 2263 Rocket 4.3 20:28:41 10° NW 20:32:39 20° W 20:36:36 10° SW
NOSS 3-3 (A) 4.3 20:27:46 10° S 20:33:07 41° ESE 20:39:03 10° NE
NOSS 3-3 (C) 4.3 20:27:53 10° S 20:33:14 40° ESE 20:39:09 10° NE
MetOp-B 4.4 20:28:09 10° S 20:33:29 72° WSW 20:38:52 10° NNW
Nadezhda 1 Rocket 4.3 20:27:20 10° NNW 20:33:44 71° W 20:40:04 10° S
Cosmos 2237 Rocket 3.9 20:33:11 13° ESE 20:34:51 14° E 20:37:46 10° ENE
Terra 2.9 20:31:40 15° ESE 20:34:59 32° ENE 20:39:12 10° N
Atlas Centaur 2 3.6 20:30:39 10° SW 20:35:17 23° S 20:38:47 16° SE
CARTOSAT-1 4.0 20:32:57 17° SE 20:36:03 47° ENE 20:40:12 10° N
Cosmos 2333 4.2 20:30:53 10° S 20:36:24 62° ESE 20:42:02 10° NNE
Cosmos 2219 Rocket 2.6 20:31:37 10° S 20:36:50 43° ESE 20:42:06 10° NE
Cosmos 2360 Rocket 2.6 20:33:06 10° SSW 20:38:43 69° WNW 20:44:24 10° NNE
IGS 5A 3.5 20:35:34 13° S 20:39:12 81° WSW 20:43:23 10° NNW
IRIS 4.3 20:39:51 10° WSW 20:42:39 36° S 20:43:18 30° SE
DELTA 2 R/B (1) 4.5 20:39:16 10° SSW 20:43:48 26° SSE 20:48:22 10° E
Cosmos 2333 Rocket 2.3 20:41:04 10° S 20:46:35 56° ESE 20:52:10 10° NNE
Resurs 01 Rocket 3.5 20:47:27 10° SSW 20:51:10 26° W 20:54:54 10° NW
ATLAS 2AS CENTAUR R/B 4.2 20:44:54 10° NNW 20:51:40 32° NNE 20:57:57 10° E
Cosmos 1315 Rocket 3.5 20:48:10 10° N 20:52:05 42° ENE 20:54:13 23° SE
Cosmos 1818 4.3 20:48:52 10° SW 20:54:11 56° NW 20:59:34 10° NNE
Cosmos-2242 3.4 20:51:18 10° NNW 20:55:36 63° W 20:59:06 15° S
Cosmos 773 Rocket 4.0 20:51:21 10° SSW 20:56:39 86° ESE 21:01:58 10° NNE
ERS-1 Rocket 2.9 20:56:51 20° SSE 21:00:26 87° ENE 21:05:31 10° NNW
Cosmos 2221 3.6 20:56:36 10° N 21:00:33 32° ENE 21:02:29 22° ESE
GEOS 3 Rocket 4.1 20:58:41 10° NNE 21:04:04 69° NW 21:09:23 10° SW
USA 215 3.2 21:00:48 10° NE 21:07:23 76° SE 21:13:55 10° SW
Cosmos 1892 4.1 21:07:02 21° ESE 21:07:36 21° E 21:10:31 10° NE
Cosmos 2278 Rocket 3.0 21:04:16 10° NNW 21:09:37 40° ENE 21:13:09 19° ESE
ATLAS 5 CENTAUR R/B 2.9 21:07:04 10° WSW 21:11:02 41° NW 21:15:29 10° NNE
Meteor 1-11 4.3 21:05:33 10° SSW 21:11:10 81° WNW 21:16:54 10° N
Cosmos 1844 Rocket 3.5 21:09:08 10° NW 21:14:23 44° WSW 21:18:16 17° S
Cosmos 1400 Rocket 4.1 21:11:14 10° NNW 21:14:53 35° W 21:17:41 15° SSW
SPOT 5 3.0 21:13:56 23° S 21:17:11 76° WSW 21:22:02 10° NNW
SL-16 R/B 4.2 21:18:56 11° E 21:19:16 12° E 21:21:04 10° ENE
Lacrosse 5 rocket 4.3 21:18:09 10° NW 21:20:29 14° N 21:22:44 10° NNE
USA 81 4.2 21:19:52 16° SSW 21:24:04 72° W 21:29:22 10° N
Cosmos 2058 3.6 21:24:59 32° ESE 21:25:59 37° E 21:29:49 10° NNE
BREEZE M DEB (TANK) 2.6 21:25:59 10° WNW 21:27:39 35° WSW 21:27:39 35° WSW
Cosmos 1408 4.1 21:29:06 22° E 21:29:06 22° E 21:31:53 10° NE
Cosmos 2181 Rocket 4.2 21:23:36 10° NNW 21:29:54 68° W 21:34:14 20° S
In-Cosmos 22 Rocket 4.3 21:29:55 30° SSE 21:32:17 53° E 21:37:27 10° NNE
Cosmos 2074 Rocket 3.9 21:29:15 24° S 21:33:12 74° E 21:39:25 10° NNE
TSX-5 4.3 21:32:50 10° NNW 21:36:16 47° ENE 21:37:36 33° ESE
Cosmos 1076 Rocket 4.0 21:36:08 36° SE 21:37:10 44° E 21:41:15 10° NNE
Cosmos 1680 Rocket 4.0 21:35:42 32° SSE 21:37:30 43° ESE 21:42:32 10° NNE
USA 267 3.5 21:34:04 17° ESE 21:39:13 69° NE 21:45:45 10° NW
Cosmos 2084 3.5 21:42:19 10° NW 21:46:46 69° SW 21:48:05 43° SSE
Cosmos 1842 Rocket 3.7 21:43:05 10° NNW 21:47:25 68° W 21:49:02 37° SSW
Cosmos 2151 4.3 21:47:18 25° E 21:47:43 25° E 21:51:13 10° NE
JB-3 4.2 21:44:54 10° N 21:48:46 85° WNW 21:49:57 43° SSW
OAO 2 Rocket 4.4 21:44:30 10° WSW 21:48:29 28° SSW 21:48:29 28° SSW
MTI 4.0 21:49:38 10° N 21:52:42 60° WNW 21:53:10 51° WSW
Cosmos 923 Rocket 3.9 21:52:20 30° SSW 21:54:58 81° ESE 22:00:17 10° NNE
Cosmos 2327 Rocket 4.4 21:52:14 31° S 21:55:23 75° E 22:01:32 10° N
ATLAS CENTAUR R/B 1.6 21:54:37 10° NW 21:58:07 43° WSW 21:58:26 42° SW
Cosmos 1825 3.1 21:58:08 33° E 21:58:08 33° E 22:01:34 10° NNE
ALOS 2 4.1 21:58:03 22° E 21:59:26 26° ENE 22:03:03 10° N
Cosmos 1980 3.6 21:56:55 30° SSW 21:59:49 75° ESE 22:05:28 10° NNE
Cosmos 44 4.4 22:05:15 24° E 22:05:15 24° E 22:07:58 10° ENE
COSMOS 2428 3.7 21:59:28 10° SW 22:04:54 46° WNW 22:10:22 10° NNE
Cosmos 1869 4.0 22:04:30 10° NNW 22:08:19 45° W 22:09:23 36° SW
Cosmos 1295 Rocket 4.4 22:06:31 36° SSE 22:09:06 69° E 22:15:11 10° NNE
GP-B 4.3 22:06:59 10° NNE 22:10:48 27° E 22:11:23 27° E
NOSS 0 Rocket 4.0 22:07:31 18° SSW 22:12:12 78° WNW 22:18:25 10° NNE
Terra 3.2 22:10:34 21° SW 22:12:41 30° W 22:16:53 10° NW
Cosmos 1624 Rocket 4.3 22:10:01 10° NNW 22:15:11 57° ENE 22:16:57 37° ESE
NOSS 3-4 (A) 3.9 22:08:30 10° NW 22:15:31 77° NE 22:19:47 29° SE
NOSS 3-4 (C) 3.9 22:08:36 10° NW 22:15:38 77° NE 22:19:55 29° SE
Cosmos 2237 Rocket 2.2 22:14:58 28° SSW 22:18:05 85° WNW 22:23:50 10° NNE
Genesis I 3.0 22:18:35 73° S 22:18:53 81° SE 22:22:48 10° NE
Cosmos 2344 3.5 22:16:02 24° SSW 22:20:45 68° ESE 22:28:35 10° NE
Cosmos 2219 Rocket 3.8 22:15:56 10° WSW 22:20:54 32° NW 22:25:55 10° N
BREEZE-M R/B 4.4 22:14:29 10° WNW 22:22:29 37° SW 22:23:36 33° SSW
Atlas Centaur 2 4.2 22:18:58 10° SW 22:21:21 17° SW 22:21:21 17° SW
DELTA 2 R/B (1) 3.7 22:24:15 10° WSW 22:29:35 48° S 22:30:03 47° SSE
Cosmos 2333 Rocket 4.2 22:26:27 10° WSW 22:31:12 27° NW 22:36:01 10° N
Thor Agena Rocket 3.5 22:26:21 10° NNE 22:31:28 79° WNW 22:33:19 40° SSW
Cosmos 2221 4.3 22:34:27 10° NW 22:37:56 24° W 22:39:20 20° WSW
BREEZE-M DEB (TANK) 2.3 22:38:14 10° WNW 22:41:21 47° N 22:41:21 47° N
Iridium 2 4.1 22:38:28 10° NNW 22:42:11 50° W 22:42:26 49° WSW
Cosmos 1371 Rocket 4.0 22:37:40 10° NNW 22:42:57 75° WSW 22:44:15 51° S
Cosmos 1892 4.4 22:41:59 22° WSW 22:43:10 26° WNW 22:46:23 10° NNW
ATLAS 2AS CENTAUR R/B 2.7 22:35:56 10° NW 22:43:30 81° SW 22:46:25 39° SSE
EO 1 Del DPAF 3.6 22:40:50 10° N 22:44:30 53° WNW 22:44:59 49° WSW
Cosmos 1766 Rocket 3.5 22:44:24 63° SE 22:44:48 67° E 22:49:11 10° NNE
MOS 1-B Rocket 4.4 22:38:46 10° NNE 22:46:28 77° WNW 22:49:57 31° SSW
Okean 3 Rocket 3.4 22:47:03 67° S 22:47:37 84° E 22:52:04 10° N
Aureole 2 Rocket 3.4 22:47:06 10° NNW 22:48:59 37° N 22:48:59 37° N
Cosmos 1328 Rocket 3.7 22:45:43 10° N 22:49:58 56° ENE 22:50:25 53° ESE
USA 215 4.4 22:43:59 10° NE 22:50:08 44° NNW 22:56:15 10° W
Cosmos 1606 2.6 22:48:25 10° N 22:52:19 77° E 22:52:19 77° E
Cosmos 2218 Rocket 4.1 22:50:54 42° SSE 22:53:01 67° E 22:59:17 10° NNE
Cosmos 2278 Rocket 3.2 22:48:33 10° NW 22:53:35 33° WSW 22:54:59 29° SW
Cosmos 2297 3.7 22:49:33 10° NNW 22:55:19 76° ENE 22:57:11 44° SE
Cosmos 2366 rocket 4.1 22:56:35 43° SSE 22:58:41 70° E 23:05:01 10° NNE
Cosmos 1420 Rocket 4.1 22:53:53 10° NNW 22:59:10 71° ENE 23:00:36 48° SE
Cosmos 1633 4.0 23:01:11 29° ENE 23:01:11 29° ENE 23:03:52 10° NNE
Lacrosse 5 rocket 3.8 22:57:57 10° NNW 23:00:57 20° NNE 23:03:51 10° ENE
Cosmos 1943 Rocket 3.1 22:56:29 10° NNW 23:01:54 43° ENE 23:04:40 25° ESE
SL-16 R/B 2.1 23:00:46 48° SSW 23:02:24 82° ESE 23:08:07 10° NNE
Cosmos 1408 4.4 23:03:24 22° W 23:04:00 22° WNW 23:06:53 10° NNW
Cosmos 2056 Rocket 3.8 23:01:34 10° NNW 23:06:51 55° WSW 23:07:58 46° SSW
Cosmos 1959 Rocket 4.4 23:06:20 46° S 23:08:19 84° E 23:14:32 10° N
Cosmos 1743 Rocket 4.2 23:12:36 39° E 23:12:46 39° E 23:16:50 10° NNE
Cosmos 2341 Rocket 4.4 23:11:46 33° SW 23:14:26 55° WNW 23:20:32 10° N
Cosmos 1048 Rocket 4.4 23:19:32 44° SE 23:20:17 47° ESE 23:25:20 10° NNE
Cosmos 332 Rocket 3.9 23:15:44 10° NNW 23:20:32 70° ENE 23:21:28 54° SE
USA 267 3.7 23:21:24 37° SSW 23:22:28 39° SW 23:28:34 10° WNW
Meteor 2-3 Rocket 3.6 23:21:02 51° S 23:22:32 88° E 23:28:16 10° N
Cosmos 2151 4.4 23:23:52 26° W 23:24:53 29° WNW 23:28:39 10° NNW
Helios 1A 2.8 23:24:53 82° S 23:25:05 89° W 23:29:16 10° NNW
Cosmos 405 3.5 23:25:59 10° N 23:29:08 52° NE 23:29:08 52° NE
SL-8 Rocket 4.4 23:30:58 34° SW 23:33:23 52° WNW 23:39:25 10° N
Meteor 1-26 Rocket 4.3 23:27:38 10° NNW 23:33:40 78° W 23:35:20 49° S
Cosmos 1825 4.3 23:32:56 16° W 23:33:44 17° WNW 23:36:20 10° NNW
Cosmos 1452 Rocket 3.4 23:28:41 10° NNW 23:33:59 87° WSW 23:35:06 57° SSE
Cosmos 1340 3.2 23:34:23 50° WNW 23:34:23 50° WNW 23:38:00 10° N
CZ-4C R/B 3.7 23:28:03 10° NNW 23:34:53 49° NE 23:42:44 10° ESE
ALOS 2 3.6 23:35:27 32° WSW 23:35:37 32° W 23:39:36 10° NNW
COSMOS 2455 2.9 23:29:50 10° NNW 23:35:55 78° ENE 23:38:24 37° SE
Cosmos 1408 Rocket 3.8 23:35:56 54° WSW 23:36:25 58° W 23:40:46 10° N
PSLV R/B 3.9 23:32:18 10° NNE 23:36:26 50° E 23:36:34 49° ESE
Cosmos 1603 4.2 23:36:25 40° SE 23:37:26 44° ESE 23:42:49 10° NE
Cosmos 1933 4.1 23:34:32 10° NNW 23:38:13 40° W 23:38:13 40° W
Cosmos 1151 Rocket 3.8 23:35:50 10° NNW 23:39:52 38° W 23:40:03 38° W
Cosmos 1500 Rocket 3.4 23:44:49 75° S 23:45:11 85° E 23:49:37 10° N
Cosmos 44 4.2 23:43:38 27° W 23:45:21 38° NW 23:49:31 10° NNE
Cosmos 1727 Rocket 4.0 23:39:52 10° NNW 23:46:05 72° W 23:48:04 45° SSW
Cosmos 2369 Rocket 2.4 23:40:55 10° NNW 23:46:31 65° ENE 23:48:49 35° SE
Resurs 1-4 Rocket 4.2 23:43:39 10° NE 23:46:46 16° E 23:48:44 13° ESE
GP-B 4.4 23:44:15 10° NNW 23:48:03 28° W 23:48:50 27° W
ISS -1.1 23:51:00 12° E 23:51:00 12° E 23:51:24 10° E
Cosmos 371 Rocket 3.7 23:45:30 10° NNW 23:50:07 45° WSW 23:50:25 44° WSW
SeaSat 1 3.9 23:46:57 10° NE 23:50:49 23° ESE 23:51:20 22° ESE
Helios 1B rocket 2.4 23:51:07 10° NNE 23:55:14 66° ESE 23:55:23 66° ESE
